Hourly Weather Barnowiec

Today, 18 April, Sunday

Time Temperature Precipitation Wind Pressure Humidity
00:00 +2°C° 0 mm 1 mps 709 mmHg 98%
01:00 +2°C° 0 mm 1 mps 709 mmHg 98%
02:00 +1°C° 0 mm 0 mps 709 mmHg 98%
03:00 +1°C° 0 mm 0 mps 709 mmHg 98%
04:00 +1°C° 0 mm 0 mps 708 mmHg 98%
05:00 +2°C° 0 mm 1 mps 709 mmHg 96%
06:00 +3°C° 0 mm 1 mps 709 mmHg 93%
07:00 +3°C° 0 mm 1 mps 709 mmHg 90%
08:00 +4°C° 0 mm 1 mps 709 mmHg 89%
09:00 +4°C° 0 mm 1 mps 709 mmHg 87%
10:00 +5°C° 0 mm 1 mps 709 mmHg 86%
11:00 +5°C° 0 mm 1 mps 709 mmHg 83%
12:00 +6°C° 0 mm 1 mps 709 mmHg 80%
13:00 +7°C° 0 mm 1 mps 709 mmHg 77%
14:00 +7°C° 0 mm 1 mps 709 mmHg 78%
15:00 +7°C° 0 mm 1 mps 709 mmHg 79%
16:00 +7°C° 0 mm 1 mps 708 mmHg 79%
17:00 +6°C° 0 mm 1 mps 709 mmHg 83%
18:00 +6°C° 0 mm 1 mps 709 mmHg 86%
19:00 +5°C° 0 mm 1 mps 709 mmHg 89%
20:00 +5°C° 0 mm 1 mps 709 mmHg 90%
21:00 +5°C° 0 mm 1 mps 709 mmHg 90%
22:00 +5°C° 0 mm 1 mps 709 mmHg 91%
23:00 +5°C° 0 mm 1 mps 709 mmHg 91%

Tomorrow, 19 April, Monday

Time Temperature Precipitation Wind Pressure Humidity
00:00 +5°C° 0 mm 1 mps 709 mmHg 91%
01:00 +4°C° 0 mm 1 mps 708 mmHg 92%
02:00 +4°C° 0 mm 1 mps 708 mmHg 92%
03:00 +4°C° 0 mm 1 mps 708 mmHg 93%
04:00 +3°C° 0 mm 0 mps 708 mmHg 93%
05:00 +4°C° 0 mm 0 mps 708 mmHg 90%
06:00 +4°C° 0 mm 0 mps 708 mmHg 87%
07:00 +5°C° 0 mm 0 mps 708 mmHg 83%
08:00 +7°C° 0.1 mm 1 mps 708 mmHg 82%
09:00 +7°C° 0.1 mm 1 mps 708 mmHg 81%
10:00 +8°C° 0.1 mm 1 mps 708 mmHg 80%
11:00 +8°C° 0.5 mm 1 mps 707 mmHg 82%
12:00 +7°C° 0.5 mm 1 mps 707 mmHg 85%
13:00 +7°C° 0.5 mm 1 mps 707 mmHg 88%
14:00 +7°C° 0.4 mm 1 mps 707 mmHg 89%
15:00 +6°C° 0.4 mm 1 mps 707 mmHg 90%
16:00 +6°C° 0.4 mm 1 mps 707 mmHg 92%
17:00 +5°C° 0.2 mm 0 mps 707 mmHg 93%
18:00 +5°C° 0.2 mm 0 mps 707 mmHg 95%
19:00 +5°C° 0.2 mm 0 mps 707 mmHg 96%
20:00 +5°C° 0.2 mm 0 mps 707 mmHg 97%
21:00 +5°C° 0.2 mm 0 mps 706 mmHg 97%
22:00 +5°C° 0.2 mm 0 mps 706 mmHg 97%
23:00 +6°C° 0.1 mm 1 mps 706 mmHg 97%

Day after tomorrow, 20 April, Tuesday

Time Temperature Precipitation Wind Pressure Humidity
00:00 +5°C° 0.1 mm 1 mps 706 mmHg 98%
01:00 +5°C° 0.1 mm 1 mps 706 mmHg 98%
02:00 +5°C° 0.1 mm 1 mps 706 mmHg 98%
03:00 +5°C° 0.1 mm 1 mps 705 mmHg 98%
04:00 +5°C° 0.1 mm 1 mps 705 mmHg 98%
05:00 +6°C° 0.2 mm 1 mps 705 mmHg 97%
06:00 +6°C° 0.2 mm 1 mps 706 mmHg 95%
07:00 +6°C° 0.2 mm 1 mps 706 mmHg 94%
08:00 +7°C° 0.2 mm 1 mps 706 mmHg 89%
09:00 +6°C° 0.2 mm 2 mps 706 mmHg 84%
10:00 +7°C° 0.2 mm 2 mps 706 mmHg 80%
11:00 +8°C° 0.3 mm 2 mps 706 mmHg 77%
12:00 +8°C° 0.3 mm 2 mps 706 mmHg 74%
13:00 +9°C° 0.3 mm 2 mps 706 mmHg 70%
14:00 +10°C° 0.3 mm 1 mps 705 mmHg 71%
15:00 +10°C° 0.3 mm 1 mps 705 mmHg 72%
16:00 +10°C° 0.3 mm 1 mps 705 mmHg 73%
17:00 +8°C° 0.2 mm 1 mps 705 mmHg 78%
18:00 +7°C° 0.2 mm 1 mps 705 mmHg 83%
19:00 +5°C° 0.2 mm 0 mps 705 mmHg 88%
20:00 +4°C° 0 mm 0 mps 706 mmHg 89%
21:00 +5°C° 0 mm 1 mps 706 mmHg 90%
22:00 +4°C° 0 mm 1 mps 706 mmHg 91%
23:00 +4°C° 0 mm 1 mps 706 mmHg 91%

21 April, Wednesday

Time Temperature Precipitation Wind Pressure Humidity
00:00 +4°C° 0 mm 1 mps 706 mmHg 92%
01:00 +3°C° 0 mm 1 mps 705 mmHg 92%
02:00 +3°C° 0 mm 1 mps 705 mmHg 92%
03:00 +3°C° 0 mm 1 mps 706 mmHg 92%
04:00 +3°C° 0 mm 1 mps 706 mmHg 93%
05:00 +4°C° 0.1 mm 1 mps 706 mmHg 90%
06:00 +5°C° 0.1 mm 1 mps 706 mmHg 87%
07:00 +7°C° 0.1 mm 1 mps 706 mmHg 85%
08:00 +8°C° 0.2 mm 1 mps 706 mmHg 76%
09:00 +8°C° 0.2 mm 2 mps 706 mmHg 67%
10:00 +10°C° 0.2 mm 3 mps 706 mmHg 59%
11:00 +10°C° 0.1 mm 3 mps 706 mmHg 55%
12:00 +11°C° 0.1 mm 3 mps 706 mmHg 52%
13:00 +12°C° 0.1 mm 3 mps 706 mmHg 48%
14:00 +12°C° 0.1 mm 3 mps 706 mmHg 50%
15:00 +11°C° 0.1 mm 3 mps 706 mmHg 52%
16:00 +12°C° 0.1 mm 2 mps 706 mmHg 53%
17:00 +9°C° 0.1 mm 2 mps 706 mmHg 63%
18:00 +8°C° 0.1 mm 1 mps 706 mmHg 72%
19:00 +7°C° 0.1 mm 1 mps 706 mmHg 81%
20:00 +6°C° 0 mm 1 mps 706 mmHg 84%
21:00 +6°C° 0 mm 1 mps 706 mmHg 86%
22:00 +5°C° 0 mm 1 mps 706 mmHg 88%
23:00 +4°C° 0 mm 2 mps 706 mmHg 89%

22 April, Thursday

Time Temperature Precipitation Wind Pressure Humidity
00:00 +4°C° 0 mm 2 mps 706 mmHg 89%
01:00 +3°C° 0 mm 2 mps 706 mmHg 89%
02:00 +3°C° 0.1 mm 2 mps 706 mmHg 90%
03:00 +3°C° 0.1 mm 2 mps 706 mmHg 90%
04:00 +4°C° 0.1 mm 2 mps 706 mmHg 91%
05:00 +4°C° 0.7 mm 2 mps 706 mmHg 91%
06:00 +6°C° 0.7 mm 1 mps 706 mmHg 92%
07:00 +6°C° 0.7 mm 1 mps 706 mmHg 93%
08:00 +6°C° 0.4 mm 2 mps 707 mmHg 90%
09:00 +6°C° 0.4 mm 2 mps 707 mmHg 88%
10:00 +5°C° 0.4 mm 3 mps 707 mmHg 86%
11:00 +5°C° 0.3 mm 3 mps 707 mmHg 83%
12:00 +5°C° 0.3 mm 3 mps 707 mmHg 81%
13:00 +5°C° 0.3 mm 4 mps 708 mmHg 78%
14:00 +5°C° 0 mm 4 mps 708 mmHg 72%
15:00 +6°C° 0 mm 4 mps 708 mmHg 66%
16:00 +6°C° 0 mm 5 mps 708 mmHg 59%
17:00 +4°C° 0 mm 4 mps 708 mmHg 63%
18:00 +3°C° 0 mm 3 mps 709 mmHg 67%
19:00 +2°C° 0 mm 2 mps 709 mmHg 71%
20:00 +2°C° 0 mm 2 mps 709 mmHg 73%
21:00 +1°C° 0 mm 2 mps 709 mmHg 76%
22:00 -1°C° 0 mm 2 mps 709 mmHg 78%
23:00 -1°C° 0 mm 2 mps 709 mmHg 79%

23 April, Friday

Time Temperature Precipitation Wind Pressure Humidity
00:00 -1°C° 0 mm 2 mps 710 mmHg 80%
01:00 -1°C° 0 mm 2 mps 710 mmHg 81%
02:00 -1°C° 0 mm 2 mps 710 mmHg 79%
03:00 -1°C° 0 mm 3 mps 710 mmHg 76%
04:00 -1°C° 0 mm 3 mps 710 mmHg 73%
05:00 -2°C° 0.1 mm 4 mps 711 mmHg 71%
06:00 -1°C° 0.1 mm 5 mps 711 mmHg 68%
07:00 0°C° 0.1 mm 5 mps 712 mmHg 66%
08:00 0°C° 0.3 mm 5 mps 712 mmHg 63%
09:00 +1°C° 0.3 mm 5 mps 712 mmHg 60%
10:00 +2°C° 0.3 mm 5 mps 712 mmHg 57%
11:00 +2°C° 0.4 mm 5 mps 713 mmHg 57%
12:00 +2°C° 0.4 mm 5 mps 713 mmHg 57%
13:00 +3°C° 0.4 mm 5 mps 713 mmHg 57%
14:00 +3°C° 0.2 mm 5 mps 713 mmHg 57%
15:00 +3°C° 0.2 mm 5 mps 713 mmHg 56%
16:00 +3°C° 0.2 mm 5 mps 713 mmHg 56%
17:00 +3°C° 0 mm 4 mps 713 mmHg 62%
18:00 +2°C° 0 mm 2 mps 713 mmHg 69%
19:00 +2°C° 0 mm 1 mps 713 mmHg 75%
20:00 +1°C° 0 mm 1 mps 714 mmHg 76%
21:00 +1°C° 0 mm 1 mps 714 mmHg 76%
22:00 -1°C° 0 mm 2 mps 714 mmHg 77%
23:00 0°C° 0 mm 1 mps 714 mmHg 78%
Show more